1507766400.46,28674,11.5,73886.8,-1.47,-2.63,-2.63,0,*5D
1507766401.73,28675,11.5,73888.5,-1.49,-2.59,-2.63,0,*5B
1507766403.01,28676,11.5,73890.0,-1.47,-2.71,-2.63,0,*5C
1507766404.29,28677,11.5,73888.0,-1.47,-2.71,-2.71,0,*5E
1507766405.57,28678,11.5,73892.8,-1.49,-2.63,-2.63,0,*5F
1507766406.84,28679,11.5,73892.5,-1.49,-2.63,-2.63,0,*5E
1507766408.11,28680,11.5,73894.8,-1.49,-2.63,-2.59,0,*51
1507766409.39,28681,11.5,73892.0,-1.47,-2.71,-2.71,0,*57
1507766410.66,28682,11.5,73892.0,-1.49,-2.75,-2.63,0,*5D
1507766411.94,28683,11.56,73896.5,-1.47,-2.71,-2.71,0,*55
1507766413.22,28684,11.5,73896.5,-1.49,-2.71,-2.71,0,*5C
1507766414.49,28685,11.5,73892.8,-1.47,-2.71,-2.71,0,*53
1507766415.77,28686,11.5,73896.3,-1.49,-2.63,-2.63,0,*5E
1507766417.05,28687,11.5,73894.3,-1.49,-2.63,-2.63,0,*5F
1507766418.32,28688,11.5,73894.3,-1.49,-2.75,-2.63,0,*57
1507766419.59,28689,11.5,73892.8,-1.49,-2.71,-2.71,0,*51
1507766420.84,28690,11.5,73896.3,-1.47,-2.83,-2.71,0,*5A
1507766422.11,28691,11.5,73896.5,-1.49,-2.75,-2.75,0,*58
1507766423.39,28692,11.5,73898.8,-1.49,-2.71,-2.71,0,*5B
1507766424.66,28693,11.5,73900.8,-1.47,-2.75,-2.63,0,*53
1507766425.95,28694,11.5,73904.0,-1.47,-2.63,-2.63,0,*53
1507766427.22,28695,11.5,73908.5,-1.49,-2.75,-2.75,0,*5C
1507766428.49,28696,11.5,73906.5,-1.49,-2.75,-2.63,0,*58
1507766429.76,28697,11.5,73896.0,-1.49,-2.71,-2.71,0,*5E
1507766431.04,28698,11.5,73902.0,-1.49,-2.71,-2.63,0,*52
1507766432.31,28699,11.5,73900.0,-1.49,-2.75,-2.63,0,*57
1507766433.58,28700,11.5,73902.8,-1.49,-2.75,-2.71,0,*55
1507766434.83,28701,11.5,73896.0,-1.51,-2.75,-2.75,0,*59
1507766436.1,28702,11.56,73900.3,-1.49,-2.71,-2.63,0,*50
1507766437.38,28703,11.5,73894.5,-1.49,-2.71,-2.63,0,*51
1507766438.65,28704,11.5,73896.0,-1.49,-2.75,-2.71,0,*51
1507766439.92,28705,11.5,73898.3,-1.47,-2.75,-2.75,0,*5A
1507766441.2,28706,11.5,73896.5,-1.49,-2.75,-2.75,0,*57
1507766442.47,28707,11.5,73898.0,-1.49,-2.75,-2.75,0,*56
1507766443.71,28708,11.5,73900.8,-1.49,-2.83,-2.71,0,*54
1507766444.93,28709,11.5,73898.5,-1.51,-2.79,-2.75,0,*5D
1507766446.18,28710,11.56,73902.3,-1.53,-2.79,-2.75,0,*57
1507766447.41,28711,11.5,73896.0,-1.51,-2.79,-2.75,0,*54
1507766448.63,28712,11.56,73898.0,-1.51,-2.79,-2.75,0,*57
1507766449.85,28713,11.5,73896.3,-1.51,-2.87,-2.67,0,*54
1507766451.1,28714,11.5,73894.8,-1.51,-2.75,-2.75,0,*5D
1507766452.38,28715,11.5,73896.0,-1.53,-2.75,-2.75,0,*5E
1507766453.6,28716,11.5,73894.3,-1.51,-2.79,-2.75,0,*53
1507766454.82,28717,11.5,73892.5,-1.51,-2.79,-2.75,0,*52
1507766456.05,28718,11.5,73898.0,-1.51,-2.79,-2.75,0,*5D
1507766457.27,28719,11.5,73896.5,-1.51,-2.79,-2.67,0,*5F
1507766458.52,28720,11.5,73902.0,-1.51,-2.75,-2.75,0,*5A
1507766459.77,28721,11.5,73900.5,-1.51,-2.75,-2.75,0,*5B
1507766461.04,28722,11.5,73896.0,-1.49,-2.63,-2.63,0,*51
1507766462.29,28723,11.5,73900.8,-1.51,-2.75,-2.75,0,*59
1507766463.54,28724,11.5,73898.8,-1.51,-2.75,-2.75,0,*5E
1507766464.79,28725,11.5,73896.8,-1.51,-2.75,-2.75,0,*5F
1507766466.04,28726,11.5,73902.8,-1.51,-2.75,-2.67,0,*5F
1507766467.31,28727,11.5,73898.0,-1.53,-2.67,-2.67,0,*5F
1507766468.59,28728,11.5,73900.5,-1.53,-2.75,-2.75,0,*50
1507766469.83,28729,11.5,73904.8,-1.51,-2.75,-2.75,0,*53
1507766471.11,28730,11.56,73904.5,-1.53,-2.75,-2.75,0,*59
1507766472.33,28731,11.5,73906.8,-1.51,-2.79,-2.67,0,*55
1507766473.61,28732,11.56,73906.5,-1.53,-2.67,-2.67,0,*5B
1507766474.85,28733,11.5,73896.8,-1.51,-2.75,-2.67,0,*5B
1507766476.1,28734,11.56,73896.0,-1.51,-2.75,-2.75,0,*5F
1507766477.35,28735,11.5,73892.3,-1.51,-2.75,-2.75,0,*5E
1507766478.63,28736,11.5,73898.0,-1.53,-2.67,-2.75,0,*5C
1507766479.87,28737,11.5,73898.3,-1.51,-2.67,-2.67,0,*5C
1507766481.12,28738,11.5,73904.0,-1.53,-2.79,-2.75,0,*5D
1507766482.37,28739,11.5,73904.8,-1.51,-2.75,-2.75,0,*52
1507766483.64,28740,11.5,73906.0,-1.53,-2.67,-2.75,0,*5D
1507766484.92,28741,11.56,73912.5,-1.53,-2.67,-2.67,0,*5F
1507766486.16,28742,11.5,73904.8,-1.51,-2.67,-2.67,0,*5E
1507766487.41,28743,11.5,73906.0,-1.51,-2.67,-2.67,0,*5F
1507766488.68,28744,11.5,73906.3,-1.53,-2.67,-2.67,0,*5A
1507766489.95,28745,11.5,73906.8,-1.53,-2.67,-2.67,0,*5B
1507766491.2,28746,11.5,73904.5,-1.51,-2.67,-2.67,0,*5A
1507766492.48,28747,11.5,73904.0,-1.53,-2.75,-2.67,0,*5A
1507766493.72,28748,11.5,73902.0,-1.51,-2.75,-2.75,0,*54
1507766495.0,28749,11.5,73898.3,-1.53,-2.75,-2.67,0,*54
1507766496.25,28750,11.5,73894.5,-1.51,-2.75,-2.75,0,*5D
1507766497.52,28751,11.5,73898.8,-1.53,-2.75,-2.75,0,*5E
1507766498.8,28752,11.5,73898.3,-1.53,-2.67,-2.75,0,*5E
1507766500.07,28753,11.5,73892.5,-1.53,-2.67,-2.63,0,*58
1507766501.34,28754,11.5,73896.3,-1.53,-2.67,-2.67,0,*5B
1507766502.59,28755,11.5,73900.0,-1.51,-2.67,-2.67,0,*58
1507766503.86,28756,11.5,73898.8,-1.53,-2.67,-2.67,0,*59
1507766505.13,28757,11.5,73902.8,-1.53,-2.67,-2.63,0,*5C
1507766506.38,28758,11.5,73898.5,-1.51,-2.55,-2.63,0,*50
1507766507.66,28759,11.5,73906.3,-1.53,-2.67,-2.55,0,*57
1507766508.93,28760,11.5,73906.0,-1.53,-2.67,-2.63,0,*58
1507766510.2,28761,11.5,73906.0,-1.53,-2.67,-2.63,0,*59
1507766511.48,28762,11.5,73900.3,-1.53,-2.67,-2.63,0,*5A
1507766512.72,28763,11.5,73902.8,-1.51,-2.67,-2.55,0,*5C
1507766514.0,28764,11.5,73900.8,-1.53,-2.67,-2.63,0,*5C
1507766515.28,28765,11.5,73898.5,-1.53,-2.63,-2.63,0,*59
1507766516.56,28766,11.5,73904.3,-1.53,-2.63,-2.63,0,*5A
1507766517.84,28767,11.5,73906.8,-1.53,-2.63,-2.63,0,*5B
1507766519.08,28768,11.5,73904.5,-1.51,-2.67,-2.63,0,*52
1507766520.36,28769,11.5,73902.8,-1.53,-2.67,-2.63,0,*51
1507766521.63,28770,11.5,73902.3,-1.53,-2.67,-2.63,0,*59
1507766522.91,28771,11.5,73900.5,-1.53,-2.63,-2.63,0,*5C
1507766524.18,28772,11.5,73896.5,-1.53,-2.67,-2.63,0,*5B
1507766525.46,28773,11.5,73896.0,-1.53,-2.67,-2.63,0,*5A
1507766526.71,28774,11.5,73898.3,-1.51,-2.67,-2.63,0,*5F
1507766527.98,28775,11.5,73896.8,-1.53,-2.63,-2.63,0,*58
1507766529.24,28776,11.5,73898.8,-1.51,-2.63,-2.55,0,*5C
1507766530.51,28777,11.5,73902.0,-1.53,-2.67,-2.55,0,*5B
1507766531.76,28778,11.5,73902.5,-1.51,-2.63,-2.55,0,*52
1507766533.04,28779,11.5,73894.5,-1.53,-2.55,-2.63,0,*51
1507766534.32,28780,11.5,73890.0,-1.53,-2.63,-2.63,0,*52
1507766535.6,28781,11.5,73886.8,-1.53,-2.63,-2.63,0,*53
1507766536.88,28782,11.5,73884.0,-1.53,-2.63,-2.63,0,*50
1507766538.15,28783,11.5,73890.0,-1.53,-2.67,-2.63,0,*55
1507766539.42,28784,11.5,73892.0,-1.53,-2.67,-2.55,0,*57
1507766540.7,28785,11.5,73892.3,-1.53,-2.63,-2.55,0,*52
1507766541.95,28786,11.5,73894.5,-1.55,-2.59,-2.59,0,*52
1507766543.22,28787,11.5,73892.8,-1.53,-2.55,-2.55,0,*55
1507766544.5,28788,11.5,73894.3,-1.53,-2.63,-2.63,0,*5A
1507766545.77,28789,11.5,73896.8,-1.53,-2.67,-2.55,0,*5A
1507766547.05,28790,11.5,73892.3,-1.53,-2.67,-2.63,0,*57
1507766548.3,28791,11.5,73888.5,-1.51,-2.63,-2.63,0,*50
1507766549.58,28792,11.5,73888.3,-1.53,-2.75,-2.63,0,*56
1507766550.85,28793,11.56,73890.8,-1.53,-2.67,-2.63,0,*54
1507766552.12,28794,11.5,73886.3,-1.53,-2.67,-2.67,0,*57
1507766553.4,28795,11.5,73894.5,-1.53,-2.67,-2.67,0,*56
1507766554.67,28796,11.5,73888.0,-1.53,-2.67,-2.63,0,*51
1507766555.95,28797,11.5,73892.3,-1.53,-2.63,-2.55,0,*51
1507766557.22,28798,11.5,73894.5,-1.53,-2.55,-2.55,0,*5B
1507766558.5,28799,11.5,73892.8,-1.53,-2.63,-2.63,0,*5A
1507766559.78,28800,11.5,73892.8,-1.53,-2.63,-2.55,0,*50
1507766561.06,28801,11.5,73894.3,-1.53,-2.55,-2.55,0,*54
1507766562.3,28802,11.5,73898.3,-1.51,-2.55,-2.55,0,*55
1507766563.58,28803,11.5,73900.3,-1.53,-2.55,-2.63,0,*53
1507766564.86,28804,11.5,73898.3,-1.53,-2.55,-2.51,0,*55
1507766566.14,28805,11.5,73896.0,-1.53,-2.63,-2.55,0,*55
1507766567.41,28806,11.56,73904.3,-1.53,-2.55,-2.55,0,*53
1507766568.69,28807,11.5,73904.0,-1.53,-2.55,-2.55,0,*52
1507766569.97,28808,11.5,73904.0,-1.53,-2.63,-2.63,0,*5D
1507766571.24,28809,11.5,73900.0,-1.53,-2.55,-2.63,0,*59
1507766572.49,28810,11.5,73900.8,-1.51,-2.55,-2.63,0,*53
1507766573.77,28811,11.5,73904.0,-1.53,-2.63,-2.55,0,*50
1507766575.05,28812,11.5,73904.0,-1.53,-2.63,-2.55,0,*53
1507766576.3,28813,11.5,73900.3,-1.55,-2.59,-2.67,0,*5C
1507766577.54,28814,11.5,73904.5,-1.55,-2.67,-2.59,0,*5B
1507766578.82,28815,11.5,73904.8,-1.53,-2.55,-2.55,0,*51
1507766580.1,28816,11.5,73900.3,-1.53,-2.63,-2.63,0,*52
1507766581.38,28817,11.5,73902.3,-1.53,-2.63,-2.55,0,*56
1507766582.63,28818,11.5,73910.3,-1.55,-2.67,-2.67,0,*5A
1507766583.88,28819,11.5,73908.3,-1.55,-2.67,-2.67,0,*5B
1507766585.13,28820,11.5,73904.0,-1.55,-2.67,-2.67,0,*51
1507766586.41,28821,11.5,73906.0,-1.53,-2.63,-2.63,0,*56
1507766587.68,28822,11.5,73898.3,-1.53,-2.63,-2.55,0,*50
1507766588.96,28823,11.5,73900.8,-1.53,-2.63,-2.55,0,*51
1507766590.24,28824,11.5,73898.5,-1.53,-2.55,-2.55,0,*53
1507766591.52,28825,11.5,73898.8,-1.53,-2.63,-2.55,0,*57
1507766592.79,28826,11.5,73896.0,-1.53,-2.55,-2.55,0,*51
1507766594.07,28827,11.5,73898.0,-1.53,-2.55,-2.55,0,*50
1507766595.34,28828,11.5,73898.8,-1.53,-2.63,-2.55,0,*5A
1507766596.62,28829,11.5,73900.5,-1.53,-2.67,-2.63,0,*5A
1507766597.89,28830,11.5,73894.3,-1.53,-2.67,-2.63,0,*52
1507766599.17,28831,11.5,73896.5,-1.53,-2.63,-2.55,0,*52
1507766600.45,28832,11.5,73902.8,-1.53,-2.63,-2.63,0,*54
1507766601.73,28833,11.5,73894.8,-1.53,-2.55,-2.55,0,*55
1507766602.97,28834,11.5,73900.0,-1.55,-2.67,-2.67,0,*54
1507766604.23,28835,11.5,73892.3,-1.55,-2.71,-2.67,0,*52
1507766605.45,28836,11.5,73900.0,-1.55,-2.79,-2.67,0,*59
1507766606.68,28837,11.5,73898.8,-1.55,-2.79,-2.71,0,*5F
1507766607.96,28838,11.5,73900.8,-1.53,-2.67,-2.63,0,*5A
1507766609.23,28839,11.5,73902.8,-1.53,-2.67,-2.63,0,*5B
1507766610.48,28840,11.5,73900.3,-1.55,-2.67,-2.67,0,*57
1507766611.73,28841,11.5,73900.3,-1.55,-2.67,-2.67,0,*56
1507766612.98,28842,11.5,73900.5,-1.55,-2.67,-2.67,0,*55
1507766614.22,28843,11.5,73898.3,-1.55,-2.59,-2.59,0,*54
1507766615.47,28844,11.5,73892.5,-1.55,-2.67,-2.67,0,*53
1507766616.72,28845,11.5,73892.3,-1.55,-2.59,-2.59,0,*52
1507766617.97,28846,11.5,73890.5,-1.55,-2.59,-2.55,0,*5D
1507766619.22,28847,11.5,73890.3,-1.55,-2.59,-2.67,0,*5D
1507766620.46,28848,11.5,73888.3,-1.55,-2.59,-2.59,0,*5F
1507766621.71,28849,11.5,73888.3,-1.55,-2.59,-2.55,0,*52
1507766622.96,28850,11.5,73892.5,-1.55,-2.67,-2.59,0,*5B
1507766624.2,28851,11.5,73888.0,-1.55,-2.59,-2.59,0,*57
1507766625.45,28852,11.5,73890.8,-1.55,-2.59,-2.59,0,*54
1507766626.69,28853,11.5,73892.0,-1.55,-2.59,-2.59,0,*55
1507766627.94,28854,11.5,73890.8,-1.55,-2.59,-2.55,0,*5E
1507766629.19,28855,11.5,73894.5,-1.55,-2.67,-2.55,0,*52
1507766630.44,28856,11.5,73904.0,-1.59,-2.67,-2.55,0,*5D
1507766631.69,28857,11.5,73900.0,-1.55,-2.59,-2.67,0,*5C
1507766632.94,28858,11.5,73896.5,-1.55,-2.59,-2.67,0,*53
1507766634.19,28859,11.5,73898.3,-1.55,-2.67,-2.55,0,*5E
1507766635.43,28860,11.5,73892.3,-1.55,-2.59,-2.59,0,*55
1507766636.68,28861,11.5,73892.3,-1.55,-2.67,-2.59,0,*59
1507766637.92,28862,11.5,73892.0,-1.55,-2.59,-2.59,0,*57
1507766639.17,28863,11.5,73896.0,-1.55,-2.59,-2.59,0,*56
1507766640.42,28864,11.5,73894.8,-1.55,-2.59,-2.59,0,*51
1507766641.66,28865,11.5,73898.5,-1.55,-2.67,-2.67,0,*50
1507766642.92,28866,11.5,73892.5,-1.55,-2.67,-2.55,0,*52
1507766644.16,28867,11.5,73896.8,-1.55,-2.59,-2.55,0,*5E
1507766645.41,28868,11.5,73896.3,-1.55,-2.59,-2.55,0,*51
1507766646.66,28869,11.5,73892.3,-1.55,-2.55,-2.55,0,*5C
1507766647.91,28870,11.5,73898.3,-1.55,-2.59,-2.55,0,*58
1507766649.16,28871,11.5,73906.0,-1.59,-2.67,-2.55,0,*58
1507766650.41,28872,11.5,73900.0,-1.55,-2.67,-2.55,0,*57
1507766651.66,28873,11.5,73900.8,-1.59,-2.59,-2.55,0,*57
1507766652.91,28874,11.5,73902.5,-1.55,-2.59,-2.55,0,*5C
1507766654.16,28875,11.5,73902.8,-1.55,-2.59,-2.59,0,*51
1507766655.41,28876,11.5,73902.8,-1.59,-2.59,-2.59,0,*5E
1507766656.65,28877,11.5,73904.8,-1.55,-2.67,-2.59,0,*5E
1507766657.91,28878,11.5,73910.5,-1.55,-2.55,-2.47,0,*5F
1507766659.15,28879,11.5,73906.5,-1.55,-2.59,-2.55,0,*51
1507766660.4,28880,11.5,73900.0,-1.55,-2.59,-2.55,0,*57
1507766661.65,28881,11.5,73904.0,-1.59,-2.59,-2.55,0,*5A
1507766662.9,28882,11.5,73906.5,-1.55,-2.59,-2.55,0,*55
1507766664.15,28883,11.5,73904.8,-1.55,-2.59,-2.47,0,*57
1507766665.4,28884,11.5,73908.5,-1.55,-2.59,-2.55,0,*53
1507766666.65,28885,11.5,73912.8,-1.55,-2.67,-2.55,0,*5F
1507766667.9,28886,11.5,73908.8,-1.55,-2.59,-2.55,0,*51
1507766669.15,28887,11.5,73906.0,-1.55,-2.55,-2.67,0,*5D
1507766670.4,28888,11.5,73898.3,-1.55,-2.59,-2.59,0,*53
1507766671.64,28889,11.5,73902.8,-1.55,-2.59,-2.59,0,*52
1507766672.89,28890,11.5,73900.8,-1.59,-2.59,-2.59,0,*56
1507766674.14,28891,11.5,73898.8,-1.59,-2.59,-2.59,0,*57
1507766675.38,28892,11.5,73890.3,-1.59,-2.59,-2.59,0,*54
1507766676.63,28893,11.5,73886.5,-1.55,-2.67,-2.59,0,*54
1507766677.87,28894,11.5,73902.3,-1.55,-2.59,-2.59,0,*5E
1507766679.12,28895,11.5,73902.0,-1.55,-2.59,-2.59,0,*5F
1507766680.37,28896,11.5,73904.8,-1.59,-2.59,-2.59,0,*50
1507766681.62,28897,11.5,73910.3,-1.59,-2.67,-2.67,0,*51
1507766682.87,28898,11.5,73908.5,-1.55,-2.59,-2.59,0,*52
1507766684.12,28899,11.5,73900.3,-1.55,-2.67,-2.67,0,*53
1507766685.36,28900,11.5,73900.3,-1.55,-2.59,-2.67,0,*5F
1507766686.62,28901,11.5,73900.5,-1.55,-2.71,-2.67,0,*54
1507766687.86,28902,11.5,73898.5,-1.55,-2.67,-2.59,0,*5D
1507766689.11,28903,11.5,73888.5,-1.55,-2.67,-2.59,0,*5C
1507766690.37,28904,11.5,73892.8,-1.59,-2.71,-2.71,0,*5A
1507766691.59,28905,11.5,73896.8,-1.55,-2.79,-2.67,0,*58
1507766692.85,28906,11.5,73898.5,-1.59,-2.71,-2.67,0,*5F
1507766694.1,28907,11.5,73894.0,-1.55,-2.71,-2.67,0,*52
1507766695.35,28908,11.5,73894.5,-1.55,-2.67,-2.67,0,*5A
1507766696.6,28909,11.5,73892.8,-1.55,-2.71,-2.71,0,*5B
1507766697.86,28910,11.5,73896.0,-1.59,-2.71,-2.71,0,*5F
1507766699.11,28911,11.5,73894.3,-1.59,-2.67,-2.59,0,*53
1507766700.35,28912,11.5,73892.0,-1.59,-2.59,-2.59,0,*5D
1507766701.6,28913,11.5,73890.0,-1.59,-2.67,-2.59,0,*51
1507766702.86,28914,11.5,73888.8,-1.59,-2.67,-2.67,0,*5B
1507766704.11,28915,11.5,73890.8,-1.59,-2.67,-2.67,0,*5A
1507766705.36,28916,11.5,73892.5,-1.59,-2.67,-2.67,0,*59
1507766706.61,28917,11.5,73888.8,-1.59,-2.67,-2.59,0,*55
1507766707.86,28918,11.5,73892.3,-1.59,-2.59,-2.67,0,*5A
1507766709.11,28919,11.5,73892.8,-1.59,-2.67,-2.59,0,*5B
1507766710.36,28920,11.5,73896.0,-1.59,-2.67,-2.59,0,*51
1507766711.61,28921,11.5,73892.8,-1.59,-2.67,-2.59,0,*50
1507766712.86,28922,11.5,73894.0,-1.59,-2.67,-2.59,0,*53
1507766714.1,28923,11.5,73892.0,-1.55,-2.59,-2.59,0,*53
1507766715.36,28924,11.5,73896.3,-1.59,-2.67,-2.67,0,*58
1507766716.61,28925,11.5,73896.8,-1.59,-2.67,-2.67,0,*59
1507766717.86,28926,11.5,73900.0,-1.59,-2.67,-2.59,0,*57
1507766719.11,28927,11.5,73904.0,-1.59,-2.67,-2.59,0,*56
1507766720.39,28928,11.5,73900.0,-1.61,-2.71,-2.63,0,*5C
1507766721.67,28929,11.5,73896.5,-1.61,-2.63,-2.71,0,*5D
1507766722.95,28930,11.5,73896.0,-1.61,-2.71,-2.63,0,*55
1507766724.2,28931,11.5,73898.5,-1.59,-2.67,-2.55,0,*5D
1507766725.45,28932,11.5,73900.3,-1.55,-2.59,-2.55,0,*5F
1507766726.7,28933,11.5,73898.5,-1.59,-2.67,-2.59,0,*53
1507766727.95,28934,11.5,73902.3,-1.59,-2.59,-2.59,0,*59
1507766729.19,28935,11.5,73888.0,-1.59,-2.59,-2.59,0,*58
1507766730.44,28936,11.5,73890.8,-1.59,-2.59,-2.59,0,*5B
1507766731.69,28937,11.5,73894.0,-1.59,-2.67,-2.55,0,*5B
1507766732.94,28938,11.5,73890.0,-1.55,-2.59,-2.59,0,*59
1507766734.19,28939,11.5,73890.0,-1.59,-2.67,-2.67,0,*54
1507766735.44,28940,11.5,73890.3,-1.55,-2.55,-2.55,0,*56
1507766736.7,28941,11.5,73894.5,-1.59,-2.55,-2.55,0,*5B
1507766737.95,28942,11.5,73888.8,-1.59,-2.55,-2.55,0,*58
1507766739.21,28943,11.5,73896.0,-1.59,-2.55,-2.55,0,*59
1507766740.46,28944,11.5,73896.3,-1.59,-2.59,-2.55,0,*52
1507766741.71,28945,11.5,73894.5,-1.59,-2.59,-2.55,0,*53
1507766742.96,28946,11.5,73892.5,-1.59,-2.59,-2.59,0,*5C
1507766744.21,28947,11.5,73894.3,-1.59,-2.59,-2.59,0,*5D
1507766745.46,28948,11.5,73894.5,-1.59,-2.59,-2.67,0,*5F
1507766746.71,28949,11.5,73898.3,-1.59,-2.67,-2.59,0,*5E
1507766747.96,28950,11.5,73894.5,-1.59,-2.59,-2.59,0,*5B
1507766749.2,28951,11.5,73890.0,-1.59,-2.59,-2.59,0,*5A
1507766750.46,28952,11.5,73898.0,-1.59,-2.59,-2.47,0,*56
1507766751.7,28953,11.5,73900.0,-1.59,-2.67,-2.59,0,*55
1507766752.95,28954,11.5,73900.8,-1.59,-2.59,-2.59,0,*5F
1507766754.2,28955,11.5,73898.5,-1.59,-2.67,-2.55,0,*5F
1507766755.46,28956,11.5,73896.0,-1.59,-2.67,-2.67,0,*5D
1507766756.7,28957,11.5,73896.3,-1.55,-2.59,-2.59,0,*50
1507766757.95,28958,11.5,73896.5,-1.59,-2.59,-2.67,0,*5E
1507766759.21,28959,11.5,73896.8,-1.59,-2.67,-2.67,0,*52
1507766760.46,28960,11.5,73898.8,-1.59,-2.67,-2.67,0,*58
1507766761.71,28961,11.5,73894.5,-1.59,-2.59,-2.59,0,*59
1507766762.96,28962,11.5,73896.5,-1.59,-2.67,-2.55,0,*5B
1507766764.21,28963,11.5,73894.5,-1.59,-2.59,-2.59,0,*5B
1507766765.46,28964,11.5,73890.8,-1.59,-2.59,-2.59,0,*5C
1507766766.7,28965,11.5,73886.8,-1.55,-2.59,-2.67,0,*5C
1507766767.96,28966,11.5,73884.5,-1.59,-2.67,-2.67,0,*5E
1507766769.21,28967,11.5,73878.3,-1.59,-2.59,-2.67,0,*52
1507766770.46,28968,11.5,73882.0,-1.59,-2.67,-2.67,0,*50
1507766771.71,28969,11.5,73880.8,-1.59,-2.59,-2.67,0,*5C
1507766772.96,28970,11.5,73878.8,-1.59,-2.67,-2.55,0,*58
1507766774.21,28971,11.5,73876.3,-1.59,-2.67,-2.59,0,*55
1507766775.5,28972,11.5,73872.3,-1.61,-2.63,-2.63,0,*50
1507766776.78,28973,11.5,73874.8,-1.61,-2.63,-2.55,0,*54
1507766778.03,28974,11.5,73876.3,-1.59,-2.67,-2.67,0,*5D
1507766779.31,28975,11.5,73882.3,-1.61,-2.63,-2.63,0,*57
1507766780.6,28976,11.5,73880.5,-1.61,-2.63,-2.63,0,*54
1507766781.88,28977,11.56,73884.0,-1.61,-2.63,-2.63,0,*55
1507766783.15,28978,11.5,73884.5,-1.61,-2.71,-2.59,0,*50
1507766784.43,28979,11.5,73882.3,-1.61,-2.71,-2.63,0,*58
1507766785.71,28980,11.5,73880.0,-1.61,-2.63,-2.59,0,*54
1507766786.97,28981,11.5,73882.5,-1.63,-2.63,-2.63,0,*5E
1507766788.25,28982,11.5,73884.0,-1.61,-2.71,-2.63,0,*5C
1507766789.52,28983,11.5,73886.8,-1.61,-2.71,-2.59,0,*54
1507766790.81,28984,11.5,73894.5,-1.61,-2.63,-2.63,0,*59
1507766792.08,28985,11.5,73888.5,-1.61,-2.59,-2.63,0,*51
1507766793.37,28986,11.5,73882.3,-1.61,-2.63,-2.63,0,*5B
1507766794.64,28987,11.5,73886.8,-1.61,-2.59,-2.59,0,*5A
1507766795.89,28988,11.5,73890.0,-1.59,-2.59,-2.59,0,*5E
1507766797.16,28989,11.5,73890.3,-1.61,-2.63,-2.59,0,*5D
1507766798.45,28990,11.5,73888.0,-1.61,-2.63,-2.51,0,*5D
1507766799.73,28991,11.5,73888.5,-1.61,-2.63,-2.63,0,*5D
1507766800.98,28992,11.5,73880.3,-1.63,-2.63,-2.59,0,*55
1507766802.26,28993,11.5,73876.5,-1.61,-2.63,-2.59,0,*56
1507766803.55,28994,11.5,73882.8,-1.61,-2.63,-2.63,0,*58
1507766804.83,28995,11.5,73884.0,-1.61,-2.63,-2.63,0,*59
1507766806.11,28996,11.5,73882.0,-1.61,-2.63,-2.59,0,*53
1507766807.39,28997,11.5,73880.8,-1.61,-2.63,-2.63,0,*5B
1507766808.65,28998,11.5,73878.8,-1.63,-2.63,-2.63,0,*56
1507766809.93,28999,11.5,73882.8,-1.61,-2.63,-2.59,0,*5C
1507766811.2,29000,11.5,73886.0,-1.61,-2.63,-2.59,0,*54
1507766812.49,29001,11.5,73882.5,-1.61,-2.63,-2.51,0,*5D
1507766813.76,29002,11.5,73880.3,-1.61,-2.59,-2.63,0,*56
1507766815.05,29003,11.5,73886.3,-1.61,-2.63,-2.63,0,*5E
1507766816.33,29004,11.5,73884.3,-1.61,-2.63,-2.71,0,*5A
1507766817.61,29005,11.5,73886.0,-1.61,-2.63,-2.63,0,*58
1507766818.89,29006,11.5,73880.8,-1.61,-2.71,-2.63,0,*58
1507766820.17,29007,11.5,73880.3,-1.61,-2.71,-2.63,0,*59
1507766821.45,29008,11.5,73896.0,-1.61,-2.51,-2.59,0,*5D
1507766822.73,29009,11.5,73894.8,-1.61,-2.71,-2.63,0,*57
1507766824.01,29010,11.5,73894.5,-1.61,-2.63,-2.59,0,*55
1507766825.26,29011,11.5,73888.8,-1.63,-2.71,-2.63,0,*5C
1507766826.51,29012,11.5,73894.5,-1.63,-2.71,-2.63,0,*5F
1507766827.8,29013,11.5,73890.0,-1.61,-2.63,-2.63,0,*5F
1507766829.04,29014,11.5,73888.3,-1.63,-2.59,-2.59,0,*5A
1507766830.31,29015,11.5,73884.0,-1.61,-2.59,-2.59,0,*59
1507766831.6,29016,11.5,73884.5,-1.61,-2.63,-2.63,0,*5A
1507766832.85,29017,11.5,73884.8,-1.59,-2.59,-2.55,0,*5C
1507766834.13,29018,11.5,73886.0,-1.61,-2.63,-2.63,0,*54
1507766835.41,29019,11.5,73884.3,-1.61,-2.63,-2.63,0,*55
1507766836.69,29020,11.5,73884.5,-1.61,-2.71,-2.59,0,*55
1507766837.97,29021,11.5,73884.5,-1.61,-2.71,-2.71,0,*5E
1507766839.25,29022,11.5,73886.3,-1.61,-2.63,-2.63,0,*5D
1507766840.5,29023,11.5,73880.8,-1.63,-2.71,-2.63,0,*5D
1507766841.78,29024,11.5,73880.3,-1.61,-2.71,-2.63,0,*58
1507766843.06,29025,11.5,73884.0,-1.61,-2.71,-2.71,0,*5A
1507766844.35,29026,11.5,73882.8,-1.61,-2.63,-2.71,0,*5A
1507766845.62,29027,11.5,73884.0,-1.61,-2.71,-2.71,0,*58
1507766846.9,29028,11.5,73880.3,-1.61,-2.75,-2.71,0,*53
1507766848.18,29029,11.5,73882.8,-1.61,-2.75,-2.71,0,*52
1507766849.44,29030,11.5,73878.3,-1.63,-2.75,-2.63,0,*5B
1507766850.72,29031,11.5,73872.8,-1.61,-2.63,-2.63,0,*5F
1507766852.0,29032,11.5,73872.3,-1.61,-2.63,-2.63,0,*5C
1507766853.28,29033,11.5,73874.3,-1.61,-2.63,-2.63,0,*5D
1507766854.56,29034,11.5,73878.5,-1.61,-2.71,-2.63,0,*59
1507766855.84,29035,11.5,73872.0,-1.61,-2.71,-2.63,0,*58
1507766857.1,29036,11.5,73868.3,-1.63,-2.59,-2.51,0,*52
1507766858.37,29037,11.5,73870.8,-1.61,-2.63,-2.59,0,*50
1507766859.65,29038,11.5,73874.8,-1.61,-2.63,-2.59,0,*5F
1507766860.93,29039,11.5,73882.0,-1.61,-2.63,-2.59,0,*5E
1507766862.21,29040,11.5,73884.0,-1.61,-2.63,-2.59,0,*50
1507766863.48,29041,11.5,73890.5,-1.61,-2.71,-2.59,0,*52
1507766864.77,29042,11.5,73890.5,-1.61,-2.63,-2.63,0,*5B
1507766866.01,29043,11.5,73890.8,-1.63,-2.59,-2.59,0,*58
1507766867.29,29044,11.5,73894.0,-1.61,-2.59,-2.63,0,*54
1507766868.54,29045,11.5,73894.5,-1.63,-2.59,-2.63,0,*57
1507766869.79,29046,11.5,73894.5,-1.63,-2.63,-2.59,0,*54
1507766871.07,29047,11.5,73892.3,-1.61,-2.63,-2.59,0,*57
1507766872.32,29048,11.5,73884.8,-1.63,-2.63,-2.59,0,*5A
1507766873.58,29049,11.5,73884.3,-1.63,-2.63,-2.59,0,*5B
1507766874.86,29050,11.5,73886.0,-1.61,-2.63,-2.63,0,*58
1507766876.11,29051,11.5,73888.3,-1.63,-2.71,-2.63,0,*58
1507766877.37,29052,11.5,73880.0,-1.63,-2.63,-2.63,0,*58
1507766878.63,29053,11.5,73880.5,-1.63,-2.63,-2.51,0,*58
1507766879.91,29054,11.5,73884.0,-1.61,-2.63,-2.63,0,*5C
1507766881.19,29055,11.5,73874.3,-1.61,-2.63,-2.63,0,*5D
1507766882.48,29056,11.5,73874.0,-1.61,-2.63,-2.63,0,*5E
1507766883.73,29057,11.5,73874.0,-1.63,-2.71,-2.71,0,*5D
1507766884.99,29058,11.5,73876.3,-1.63,-2.63,-2.63,0,*52
1507766886.24,29059,11.5,73872.3,-1.63,-2.63,-2.71,0,*50
1507766887.53,29060,11.5,73876.3,-1.61,-2.63,-2.63,0,*5B
1507766888.81,29061,11.5,73874.5,-1.61,-2.71,-2.71,0,*5A
1507766890.06,29062,11.5,73874.3,-1.63,-2.71,-2.71,0,*5B
1507766891.31,29063,11.5,73872.5,-1.63,-2.71,-2.75,0,*5E
1507766892.56,29064,11.5,73876.0,-1.63,-2.71,-2.75,0,*59
1507766893.82,29065,11.5,73878.5,-1.63,-2.71,-2.71,0,*5C
1507766895.07,29066,11.5,73876.5,-1.63,-2.75,-2.71,0,*5B
1507766896.32,29067,11.5,73872.5,-1.63,-2.71,-2.75,0,*5A
1507766897.58,29068,11.5,73876.3,-1.63,-2.63,-2.63,0,*51
1507766898.83,29069,11.5,73878.8,-1.63,-2.71,-2.63,0,*53
1507766900.09,29070,11.5,73872.5,-1.63,-2.63,-2.63,0,*58
1507766901.37,29071,11.5,73872.3,-1.61,-2.63,-2.63,0,*5B
1507766902.63,29072,11.5,73874.3,-1.63,-2.75,-2.71,0,*5E
1507766903.88,29073,11.5,73874.8,-1.63,-2.75,-2.63,0,*5C
1507766905.16,29074,11.5,73876.5,-1.61,-2.63,-2.71,0,*5D
1507766906.42,29075,11.5,73890.0,-1.63,-2.71,-2.71,0,*5D
1507766907.67,29076,11.5,73886.3,-1.63,-2.71,-2.75,0,*5A
1507766908.92,29077,11.5,73880.5,-1.63,-2.71,-2.75,0,*5B
1507766910.2,29078,11.5,73884.5,-1.61,-2.71,-2.63,0,*51
1507766911.48,29079,11.5,73884.3,-1.61,-2.75,-2.71,0,*57
1507766912.73,29080,11.5,73882.8,-1.63,-2.75,-2.71,0,*53
1507766913.99,29081,11.5,73876.5,-1.63,-2.71,-2.63,0,*55
1507766915.24,29082,11.5,73874.5,-1.63,-2.71,-2.63,0,*56
1507766916.49,29083,11.5,73878.5,-1.63,-2.71,-2.63,0,*57
1507766917.77,29084,11.5,73878.8,-1.61,-2.75,-2.71,0,*55
1507766919.02,29085,11.5,73872.3,-1.63,-2.75,-2.75,0,*52
1507766920.3,29086,11.5,73866.5,-1.61,-2.75,-2.71,0,*57
1507766921.56,29087,11.5,73870.8,-1.63,-2.75,-2.71,0,*54
1507766922.81,29088,11.5,73874.8,-1.63,-2.75,-2.71,0,*5B
1507766924.06,29089,11.5,73872.8,-1.63,-2.75,-2.71,0,*5A
1507766925.32,29090,11.5,73878.8,-1.63,-2.71,-2.71,0,*56
1507766926.56,29091,11.5,73878.0,-1.65,-2.87,-2.75,0,*5C
1507766927.78,29092,11.5,73864.0,-1.65,-2.87,-2.79,0,*53
1507766929.03,29093,11.5,73870.0,-1.65,-2.79,-2.75,0,*5F
1507766930.28,29094,11.5,73872.8,-1.65,-2.79,-2.75,0,*58